SCP
0 0 0 0 0 0 0 0 0 0 0 0 0 0 0 0 0 0 0 0 0 0 0 0 0 0 0 0 0 0 0 0 0 0 0 0 0 0
0 0 0 0 0 0 0 0 0 0 0 0 0 0 0 0 0 0 0 0 0 0 0 0 0 0 0 0 0 0 0 0 0 0 0 0 0 0
0 0 0 0 0 0 0 0 0 0 0 0 0 0 0 0 0 0 0 0 0 0 0 0 0 0 0 0 0 0 0 0 0 0 0 0 0 0
0 0 0 0 0 0 0 0 0 0 0 0 0 0 0 0 0 0 0 0 0 0 0 0 0 0 0 0 0 0 0 0 0 0 0 0 0 0
0 0 0 0 0 0 0 0 0 0 0 0 0 0 0 0 0 0 0 0 0 0 0 0 0 0 0 0 0 0 0 0 0 0 0 0 0 0
0 0 0 0 0 0 0 0 0 0 0 0 0 0 0 0 0 0 0 0 0 0 0 0 0 0 0 0 0 0 0 0 0 0 0 0 0 0
0 0 0 0 0 0 0 0 0 0 0 0 0 0 0 0 0 0 0 0 0 0 0 0 0 0 0 0 0 0 0 0 0 0 0 0 0 0
0 0 0 0 0 0 0 0 0 0 0 0 0 0 0 0 0 0 0 0 0 0 0 0 0 0 0 0 0 0 0 0 0 0 0 0 0 0
0 0 0 0 0 0 0 0 0 0 0 0 0 0 0 0 0 0 0 0 0 0 0 0 0 0 0 0 0 0 0 0 0 0 0 0 0 0
0 0 0 0 0 0 0 0 0 0 0 0 0 0 0 0 0 0 0 0 0 0 0 0 0 0 0 0 0 0 0 0 0 0 0 0 0 0
0 0 0 0 0 0 0 0 0 0 0 0 0 0 0 0 0 0 0 0 0 0 0 0 0 0 0 0 0 0 0 0 0 0 0 0 0 0
0 0 0 0 0 0 0 0 0 0 0 0 0 0 0 0 0 0 0 0 0 0 0 0 0 0 0 0 0 0 0 0 0 0 0 0 0 0
0 0 0 0 0 0 0 0 0 0 0 0 0 0 0 0 0 0 0 0 0 0 0 0 0 0 0 0 0 0 0 0 0 0 0 0 0 0
0 0 0 0 0 0 0 0 0 0 0 0 0 0 0 0 0 0 0 0 0 0 0 0 0 0 0 0 0 0 0 0 0 0 0 0 0 0
0 0 0 0 0 0 0 0 0 0 0 0 0 0 0 0 0 0 0 0 0 0 0 0 0 0 0 0 0 0 0 0 0 0 0 0 0 0
0 0 0 0 0 0 0 0 0 0 0 0 0 0 0 0 0 0 0 0 0 0 0 0 0 0 0 0 0 0 0 0 0 0 0 0 0 0
0 0 0 0 0 0 0 0 0 0 0 0 0 0 0 0 0 0 0 0 0 0 0 0 0 0 0 0 0 0 0 0 0 0 0 0 0 0
-0 0 0 0 0 0 0 0 0 0 0 0 0 0 0 0 0 0 0 0 0 0 0 0 0 0 0 0 0 0 0 0 0 0 0 0 0 0
-0 0 0 0 0 0 0 0 0 0 0 0 0 0 0 0 0 0 0 0 0 0 0 0 0 0 0 0 0 0 0 0 0 0 0 0 0 0
0 0 0 0 0 0 0 0 0 0 0 0 0 0 0 0 0 0 0 0 0 0 0 0 0 0 0 0 0 0 0 0 0 0 0 0 0 0
0 0 0 0 0 0 0 0 0 0 0 0 0 0 0 0 0 0 0 0 0 0 0 0 0 0 0 0 0 0 0 0 0 0 0 0 0 0
0 0 0 0 0 0 0 0 0 0 0 0 0 0 0 0 0 0 0 0 0 0 0 0 0 0 0 0 0 0 0 0 0 0 0 0 0 0
0 0 0 0 0 0 0 0 0 0 0 0 0 0 0 0 0 0 0 0 0 0 0 0 0 0 0 0 0 0 0 0 0 0 0 0 0 0
Wind_Speed
5 6 6 5 5 5 5 5 8 11 10 8 6 7 6 7 8 5 6 10 14 14 15 16 16 16 17 16 15 15 15 16 15 14 13 13 13 13
5 7 6 6 5 5 5 5 6 9 12 9 7 7 8 11 13 9 8 14 17 14 15 16 17 17 17 16 15 14 15 16 15 14 13 12 12 12
7 7 7 7 6 6 6 6 7 8 11 9 7 7 9 9 8 8 10 10 8 14 16 15 14 16 16 15 14 14 14 14 15 15 14 13 12 11
8 8 8 8 8 7 6 7 7 7 9 10 7 7 9 9 9 9 11 11 7 10 8 6 7 9 12 13 13 12 11 11 11 12 12 11 10 10
9 9 8 8 8 8 9 9 8 9 7 8 9 7 8 9 9 11 11 8 8 5 1 1 5 7 10 11 11 10 10 9 8 8 8 8 8 8
9 8 7 7 8 8 8 8 9 8 8 8 8 7 7 8 8 7 6 4 3 2 4 6 8 10 12 12 12 12 11 11 9 8 7 7 8 9
8 7 8 11 13 9 10 9 10 9 9 8 8 8 8 7 7 5 5 4 4 1 3 4 5 5 6 9 12 14 12 10 9 9 9 9 9 10
8 8 9 10 11 14 19 19 16 12 10 9 9 10 11 10 8 7 6 6 5 1 1 5 4 5 4 3 2 4 5 6 6 8 9 10 12 12
9 9 9 10 12 9 13 18 16 17 17 12 12 13 13 12 10 9 7 7 6 3 4 7 5 6 4 3 5 3 2 5 9 11 12 14 15 15
9 10 10 12 12 11 12 12 12 11 13 12 11 12 12 9 8 8 9 8 7 6 5 4 3 2 1 2 3 0 5 9 13 15 16 16 17 19
10 11 11 11 12 13 13 13 13 11 13 14 13 12 14 14 10 8 8 7 6 4 3 3 1 1 1 1 1 3 8 12 14 15 17 18 19 20
10 10 12 11 13 15 12 11 12 10 8 8 8 8 7 7 9 8 5 4 3 2 2 1 1 0 1 0 1 3 5 10 14 16 18 20 20 15
10 9 8 14 16 17 14 9 10 10 8 7 5 4 4 3 3 5 5 3 2 1 1 0 0 0 0 2 2 3 4 6 7 9 12 12 15 17
9 8 9 16 17 16 11 11 11 7 3 3 3 3 3 3 4 6 7 7 6 5 4 1 0 0 0 1 3 3 4 5 6 6 5 5 10 15
8 14 16 17 15 9 11 12 9 5 3 3 3 4 3 3 2 3 5 5 5 5 5 4 3 2 1 1 2 3 3 5 7 6 7 7 7 8
9 11 13 12 9 9 8 7 5 5 4 4 4 3 3 4 5 4 4 4 3 4 6 6 5 4 2 3 3 4 5 5 6 6 7 8 8 8
9 6 5 7 6 6 6 6 6 6 6 5 4 3 3 4 4 3 2 3 3 4 5 5 6 6 9 7 5 6 6 6 7 7 7 9 10 9
7 6 7 7 7 7 6 6 5 5 5 4 4 4 4 3 3 3 3 5 6 6 6 5 4 2 3 9 14 6 6 7 8 9 8 10 11 10
6 6 7 7 7 6 6 5 6 6 5 4 5 4 4 4 5 5 6 6 7 7 7 7 7 6 8 8 9 14 8 7 8 10 11 10 11 11
6 6 6 7 7 6 5 5 5 6 5 5 5 4 4 5 6 6 6 6 7 8 9 9 9 9 10 7 5 8 13 9 9 10 10 11 12 16
6 6 6 7 7 6 5 5 5 5 6 6 5 4 4 5 5 5 5 8 7 7 9 8 6 7 6 6 9 10 10 14 12 7 6 8 9 9
6 6 6 7 7 6 6 5 5 6 7 6 4 3 3 3 4 4 4 5 5 5 7 6 5 5 5 9 11 10 9 9 12 17 15 8 5 6
7 6 6 6 7 6 6 6 7 7 7 6 4 3 3 2 2 4 3 3 4 5 5 5 5 5 8 9 9 10 13 12 11 13 15 22 26 24
Wind_Direction
252 254 249 253 249 254 263 271 285 290 287 286 280 282 285 293 287 292 279 270 262 246 243 241 240 247 255 261 269 277 282 282 280 280 281 281 282 287
269 274 278 275 275 283 286 279 271 274 280 283 277 277 285 287 291 284 269 274 270 258 250 244 236 237 244 253 263 271 276 277 271 267 267 270 274 278
301 301 297 291 288 285 279 273 266 264 275 283 284 283 280 279 284 286 282 267 260 262 260 252 241 240 242 249 258 264 269 273 268 259 256 260 267 275
330 323 319 322 325 317 306 298 290 281 279 286 288 291 293 299 287 281 285 275 261 266 253 232 239 243 240 243 249 253 258 268 269 255 250 252 261 272
327 322 324 327 317 311 308 302 298 295 292 291 292 289 288 287 289 287 279 274 272 276 275 275 276 262 249 241 237 238 239 243 248 246 245 251 259 268
319 319 318 310 300 302 302 298 296 295 292 287 285 283 282 282 279 281 289 295 309 339 328 307 285 269 256 243 233 233 231 229 228 232 241 252 263 269
311 309 303 300 301 304 307 306 303 296 293 289 289 294 293 295 295 301 308 313 296 289 308 296 284 269 261 253 250 247 235 226 225 227 231 237 243 248
315 312 308 303 312 313 306 300 296 294 295 293 291 289 290 293 298 301 302 299 288 209 296 290 274 265 253 243 221 208 199 215 235 243 244 243 240 238
325 320 318 316 313 303 305 301 293 286 281 280 281 282 283 285 291 294 288 284 279 278 282 279 258 255 242 226 172 163 219 260 265 264 260 254 247 240
327 320 317 315 311 312 308 299 288 278 271 270 270 277 281 285 287 286 283 277 268 256 233 260 243 232 195 161 140 301 300 290 280 272 264 255 245 237
322 315 310 310 314 316 309 298 292 285 274 268 270 276 277 277 276 275 266 259 264 251 197 225 242 252 238 206 240 304 307 297 285 274 263 253 241 229
317 312 310 313 313 312 308 298 292 293 299 306 302 294 281 279 284 282 276 257 250 245 154 177 208 246 282 228 291 298 303 295 290 280 270 257 236 215
313 317 320 328 326 320 315 302 290 292 295 297 299 303 304 316 351 16 22 12 349 16 83 181 267 183 303 323 303 286 299 302 298 286 285 262 209 185
317 320 324 327 326 325 328 337 333 321 304 310 315 321 347 28 40 46 40 32 26 17 5 337 299 10 115 303 295 297 298 317 322 329 346 58 125 138
322 325 329 326 327 331 337 342 347 351 349 350 0 13 27 35 36 56 45 22 10 18 22 33 53 62 47 330 314 321 319 331 347 1 21 44 75 105
330 327 328 331 342 344 342 348 355 0 2 13 23 26 29 36 43 46 33 1 357 21 38 47 51 55 60 40 32 27 15 1 354 16 39 51 55 62
325 336 347 345 356 357 352 356 2 7 12 13 12 8 38 56 50 42 29 3 17 31 40 40 48 60 55 41 47 41 32 26 18 22 45 58 55 57
351 357 353 351 352 356 355 359 359 3 360 353 354 8 32 62 62 44 34 34 39 41 40 29 14 16 62 56 35 44 42 40 37 39 48 62 59 54
10 360 354 349 349 353 357 358 359 2 357 351 353 12 44 55 51 54 57 53 55 55 49 39 32 46 69 65 39 34 46 52 57 56 52 57 61 59
6 358 351 346 343 348 355 357 2 4 356 350 351 20 62 74 73 68 66 65 65 67 64 56 53 55 61 63 55 46 41 55 67 71 69 71 73 75
358 354 348 344 343 350 355 356 3 357 351 353 8 39 70 91 95 93 89 87 82 79 79 78 83 88 83 76 72 62 54 51 54 57 64 74 72 68
354 350 347 346 345 350 360 359 355 352 352 354 10 38 53 92 113 124 122 110 108 106 109 120 124 103 83 79 80 80 78 73 61 53 50 63 80 83
348 347 348 346 344 351 1 2 2 358 353 351 7 26 19 23 95 112 107 105 122 128 120 116 114 99 87 82 84 82 77 73 71 68 61 70 84 98